843  
ASUS44 KOUN 231210  
RWROK  
 
WEATHER ROUNDUP FOR OKLAHOMA  
NATIONAL WEATHER SERVICE NORMAN OK  
600 AM CST MON JAN 23 2017  
 
NOTE: "FAIR" INDICATES FEW OR NO CLOUDS BELOW 12,000 FEET WITH NO  
SIGNIFICANT WEATHER AND/OR S TO VISIBILITY
.  
 
OKZ001>007-009>012-014-015-017-231300-  
NORTHWEST OKLAHOMA AND THE PANHANDLE  
 
CITY SKY/WX TMP DP RH WIND PRES REMARKS
 
GAGE CLOUDY 26 24 92 CALM 29.89F  
6HR MIN TEMP: 26; 6HR MAX TEMP: 32;  
 
GUYMON PTCLDY 32 27 81 SE3 29.80F  
ENID/WOODRING CLEAR 30 30 100 CALM 29.91R  

 
 
OKZ016-021>023-033>039-044-045-231300-  
SOUTHWEST OKLAHOMA  
 
CITY SKY/WX TMP DP RH WIND PRES REMARKS
 
LAWTON/REGL CLOUDY 28 27 96 SW5 29.96R WCI 23  
6HR MIN TEMP: 28; 6HR MAX TEMP: 39;  
 
LAWTON/FT SILL CLOUDY 36 32 86 CALM 29.94R  
FREDERICK CLOUDY 33 30 88 W6 29.93S WCI 28  
CLINTON CLOUDY 34 27 75 S6 29.93R WCI 29  
HOBART CLOUDY 29 27 92 W7 29.95R WCI 22  
ALTUS AFB CLOUDY 33 27 79 CALM 29.94F  

 
 
OKZ018>020-024>031-231300-  
CENTRAL OKLAHOMA  
 
CITY SKY/WX TMP DP RH WIND PRES REMARKS
 
OKLAHOMA CITY CLOUDY 32 28 85 CALM 29.92F  
6HR MIN TEMP: 27; 6HR MAX TEMP: 40;  
 
OKC/WILEY POST CLOUDY 31 28 89 CALM 29.92F  
OKC/TINKER AFB CLEAR 32 27 83 E6 29.91F WCI 26  
STILLWATER CLOUDY 27 25 92 CALM 29.92F  
GUTHRIE CLOUDY 28 26 92 SW3 29.92F  

 
 
OKZ008-013-054>072-231300-  
NORTHEAST OKLAHOMA  
 
CITY SKY/WX TMP DP RH WIND PRES REMARKS
 
TULSA CLEAR 32 30 92 CALM 29.94F  
6HR MIN TEMP: 30; 6HR MAX TEMP: 35;  
 
TULSA/JONES CLEAR 29 27 92 CALM 29.94F  
PONCA CITY CLEAR 27 24 89 CALM 29.92F  
BARTLESVILLE CLEAR 26 24 92 CALM 29.95F  
MUSKOGEE CLEAR 31 30 96 W6 29.96R WCI 25  

 
 
OKZ032-040>043-046>053-073>077-231300-  
SOUTH CENTRAL/SOUTHEAST OKLAHOMA  
 
CITY SKY/WX TMP DP RH WIND PRES REMARKS
 
ARDMORE/DWNTWN CLOUDY 32 30 93 CALM 29.95R  
MCALESTER CLOUDY 35 30 82 NE5 29.92F WCI 31  

 
 
 
 
CLICK HERE TO GO TO PREVIOUS BULLETINS.

The Nexlab OK Page Main Text Page